Location: Byszew
(52.1813°N, 19.2693°E)
Time: 03:51:10
(UTC+00:00)

SeaSat 1 - Visible Passes

Search period start: 14 June 2021 00:00
Search period end: 24 June 2021 00:00
Orbit: 744 x 747 km, 108.0° (Epoch: 13 June)

Date Brightness Start Highest point End Pass type
(mag) Time Alt. Az. Time Alt. Az. Time Alt. Az.
14 Jun 4.6 00:13:00 10° ENE 00:16:06 16° ESE 00:19:11 10° SE visible
15 Jun 3.5 01:07:15 10° NE 01:11:54 39° ESE 01:16:30 10° S visible
16 Jun 4.5 00:25:55 10° ENE 00:29:15 18° ESE 00:32:32 10° SE visible
17 Jun 3.4 01:20:18 10° NE 01:25:01 42° ESE 01:29:41 10° S visible
18 Jun 4.5 00:38:52 10° ENE 00:42:23 19° ESE 00:45:52 10° SSE visible
20 Jun 4.4 00:51:50 10° ENE 00:55:32 21° ESE 00:59:11 10° SSE visible
22 Jun 4.4 01:04:49 10° NE 01:08:39 22° ESE 01:12:28 10° SSE visible
